Location: Marshfield
(37.3390°N, 92.9070°W)
Time: 20:26:08

N. Korean satellite - Visible Passes

Search period start: 18 March 2018 00:00
Search period end: 28 March 2018 00:00
Orbit: 460 x 512 km, 97.2° (Epoch: 18 March)

Date Brightness Start Highest point End Pass type
(mag) Time Alt. Az. Time Alt. Az. Time Alt. Az.
18 Mar 9.5 19:47:40 10° SSW 19:50:38 24° W 19:53:40 10° NW visible
21 Mar 10.2 20:11:09 10° WSW 20:12:49 13° W 20:14:29 10° WNW visible
25 Mar 10.1 20:09:05 10° WSW 20:10:57 13° W 20:12:51 10° WNW visible
